Simultaneous Nadir Overpasses (SNOs) Predictions

Prediction of SNOs between GOES-15 and TERRA Satellite Orbit:

Table of predicted SNOs for the next 14.0 days since TLE Epoch: 6/29/2013
Index Date Time (GOES-15) GOES-15 Lat,Lon TERRA Lat,Lon Distance(km) Time Diff (sec)
1 06/30/2013 07:22:11 0.03,-134.99 0.38,-133.41 180.81 80
2 06/30/2013 19:46:05 -0.00,-135.01 0.78,-138.55 402.78 80
3 07/02/2013 19:33:53 -0.01,-135.08 0.12,-135.59 59.21 80
4 07/04/2013 19:19:01 -0.01,-135.13 -0.56,-132.64 283.80 80
5 07/05/2013 07:43:04 -0.01,-135.15 -0.61,-137.82 304.24 80
6 07/07/2013 07:28:12 -0.00,-135.20 0.08,-134.87 38.03 80
7 07/09/2013 07:15:59 0.00,-135.25 0.72,-131.91 379.86 80
8 07/09/2013 19:39:54 0.02,-135.26 0.38,-137.06 204.67 80
9 07/11/2013 19:25:01
